Location: Akdamlar
(36.8729°N, 30.5187°E)
Time: 20:32:17
(UTC+00:00)

ATLAS 3B R/B - Pass Details

Date: 18 September 2020
Orbit: 1016 x 1179 km, 63.8° (Epoch: 04 October)

Event Time Altitude Azimuth Distance (km) Brightness Sun altitude
Rises 19:36:46 0° 333° (NNW) 3,845 6.4 -40.5°
Reaches altitude 10° 19:39:30 10° 339° (NNW) 2,910 5.5 -40.9°
Enters shadow 19:42:49 28° 355° (N) 1,901 4.2 -41.4°
